Flag for U.S.A. Weather past 2 weeks in Kilgore, Texas, U.S.A.

Now
62 °F

Light rain. Fog.


Feels Like: 62 °F
Forecast: 42 / 60 °F
Wind: 6 mph from South

Location: Gregg County Airport

Current Time: Dec 27, 2014 at 9:12:04 AM

Latest Report: Dec 27, 2014 at 9:00 AM


Visibility: 2 mi

Pressure: 30.04 "Hg

Humidity: 93%

Dew point: 60 °F

Location of KilgoreLocation

Historic Weather in Kilgore — Graph

°F

Kilgore temperature yesterday

Maximum temperature yesterday: 62 °F (at 12:53 PM)
Minimum temperature yesterday: 47 °F (at 1:53 AM)
Average temperature yesterday: 56 °F

Past Weeks' High & Low Weather Summary

 TemperatureHumidityPressure
High71 °F (Dec 14, 12:53 PM)97% (Dec 21, 3:00 AM)30.32 "Hg (Dec 21, 3:00 AM)
Low33 °F (Dec 25, 2:53 AM)31% (Dec 15, 3:53 PM)29.52 "Hg (Dec 22, 1:53 PM)
Average51 °F78%30.05 "Hg
* Reported Dec 12 8:00 AM — Dec 27 7:53 AM, Kilgore, Weather by CustomWeather, © 2014

Note: Actual official high and low records may vary slightly from our data, if they occured in-between our weather recording intervals... More about our weather records

Advertising

Kilgore weather history for previous 24 hours

 ConditionsComfort  
Time TempWeatherWind HumidityBarometerVisibility
7:53 AM
Dec 27
61 °FLight rain. Fog.7 mph97%30.02 "Hg1 mi
6:53 AM61 °FFog.3 mph93%30.01 "Hg1 mi
5:53 AM61 °FFog.5 mph93%30.01 "Hg4 mi
4:53 AM61 °FFog.5 mph97%30.00 "Hg5 mi
3:53 AM61 °FFog.7 mph93%30.01 "Hg6 mi
2:53 AM61 °FFog.8 mph93%30.00 "Hg6 mi
1:53 AM61 °FLow clouds.10 mph93%30.00 "Hg7 mi
12:53 AM61 °FLow clouds.9 mph90%30.01 "Hg8 mi
11:53 PM
Dec 26
61 °FOvercast.10 mph90%30.01 "Hg9 mi
10:53 PM61 °FMostly cloudy.12 mph90%30.02 "Hg9 mi
9:53 PM60 °FLow clouds.9 mph90%30.02 "Hg9 mi
8:53 PM60 °FLow clouds.9 mph90%30.01 "Hg9 mi
7:53 PM59 °FLow clouds.6 mph93%30.00 "Hg9 mi
6:53 PM58 °FLow clouds.9 mph93%29.98 "Hg8 mi
5:53 PM57 °FLow clouds.9 mph93%29.98 "Hg7 mi
4:53 PM58 °FLight rain. Fog.8 mph90%29.97 "Hg5 mi
3:53 PM58 °FOvercast.9 mph90%29.96 "Hg7 mi
2:53 PM59 °FLight rain. Fog.10 mph87%29.96 "Hg2 mi
1:53 PM62 °FMostly cloudy.13 mph73%29.96 "Hg10 mi
12:53 PM62 °FOvercast.14 mph73%29.99 "Hg10 mi
11:53 AM60 °FMostly cloudy.12 mph72%30.02 "Hg10 mi
10:53 AM55 °FMore clouds than sun.10 mph83%30.05 "Hg10 mi
9:53 AM54 °FOvercast.8 mph83%30.07 "Hg9 mi
Weather by CustomWeather, © 2014

See weather overviewHow to use our weather pages